sat.trackr.live / text

‹ back to catalog

JCSAT-17

NORAD 45245 · 2020-013A

PAYLOAD ACTIVE UNKNOWN

§ Identity

Operator
Country
JPN
Launch date
2020-02-18
Launch site
FRGUI
Launch vehicle
Mass (kg)
RCS (m²)

Purposes: comms

External: N2YO · Heavens-Above · Gunter

§ Orbital elements

Epoch: 2026-05-24T23:15:15.553728Z

Period
1,436.09 min
Inclination
5.3930°
Eccentricity
0.0003050
Mean motion
1.00272046 rev/d
Perigee alt
35,773.7 km
Apogee alt
35,799.4 km
Semi-major
42,164.7 km
B*
0.0000e+0
RAAN
356.6636°
Arg perigee
51.5378°
Mean anomaly
319.1830°
Rev number
2,300

§ Raw data

JCSAT-171 45245U 20013A   26144.96893002 -.00000327  00000+0  00000+0 0  99912 45245   5.3930 356.6636 0003050  51.5378 319.1830  1.00272046 23006

JSON: /api/v1/satellites/45245 · /tle

For live sub-satellite position, see the globe view (requires WebGL).

§ Visibility from observer

Set your observer location to see the next 7 days of passes ≥ 10°. The values pass through the URL so the page stays shareable.

No JS? Fill the form by hand. The geolocation button needs JavaScript.